This is the latest recevied weather packets stored in our database for station/object KQ4TV-2. If no packets are shown the sender has not sent any weather packets the latest 10 day(s).
| Time | Temp. | Humidity | Pressure | Rain* | Wind** | Luminosity | Snow |
|---|---|---|---|---|---|---|---|
| 1787980328 | 21.11° C | 83% | - | 0 mm | - | - | - |
| 1787979965 | 21.67° C | 83% | - | 0 mm | - | - | - |
| 1787979723 | 21.67° C | 82% | - | 0 mm | - | - | - |
| 1787979361 | 21.67° C | 82% | - | 0 mm | - | - | - |
| 1787975372 | 22.78° C | 78% | - | 0 mm | - | - | - |
| 1787973802 | 23.33° C | 77% | - | 0 mm | - | - | - |
| 1787973560 | 23.33° C | 77% | - | 0 mm | - | - | - |
| 1787970659 | 23.89° C | 73% | - | 0 mm | - | - | - |
| 1787970538 | 23.89° C | 73% | - | 0 mm | - | - | - |
| 1787970176 | 24.44° C | 73% | - | 0 mm | - | - | - |
| 1787969572 | 24.44° C | 73% | - | 0 mm | - | - | - |
| 1787969330 | 24.44° C | 73% | - | 0 mm | - | - | - |
| 1787969209 | 24.44° C | 72% | - | 0 mm | - | - | - |
| 1787968363 | 24.44° C | 72% | - | 0 mm | - | - | - |
| 1787967396 | 25° C | 70% | - | 0 mm | - | - | - |
| 1787967034 | 25° C | 69% | - | 0 mm | - | - | - |
| 1787963771 | 26.67° C | 62% | - | 0 mm | - | - | - |
| 1787963650 | 26.67° C | 61% | - | 0 mm | - | - | - |
| 1787963173 | 27.22° C | 60% | - | 0 mm | - | - | - |
| 1787962441 | 27.78° C | 58% | - | 0 mm | - | - | - |
| 1787962200 | 28.33° C | 57% | - | 0 mm | - | - | - |
| 1787961958 | 28.33° C | 57% | - | 0 mm | - | - | - |
| 1787960266 | 30.56° C | 51% | - | 0 mm | - | - | - |
| 1787959783 | 31.11° C | 49% | - | 0 mm | - | - | - |
| 1787959541 | 31.11° C | 48% | - | 0 mm | - | - | - |
* Rain since midnight (hover to see other rain measurements)
** Current wind speed in m/s (hover to see current wind gust speed)